Starlink 3610

operational
NORAD ID: 51812 Int'l Des: 2022-017 Owner: SPXS Country: US Constellation: starlink
LEOCIRCULAR

About Starlink 3610

Description loading...

Live Position

Loading 3D Globe...

Upcoming Passes

Altitude History

Altitude vs Time

uPlot chart will show altitude changes over time

Two-Line Element Set

1 51812U 22017AW 26063.07232400 -.00000671 00000-0 -24074-4 0 9991
2 51812 53.2199 354.3398 0001445 72.0324 288.0825 15.08834244223239
Epoch: Mar 4, 2026 • Age: 19 hours

Current Status

Altitude 557.4 km
Velocity 7.58 km/s
Sub-Earth Point -48.97°S, 153.83°W
Launch Date Feb 25, 2022
Age 4 years
Type internet

Technical Details

Classification Payload
Mass 297.00 kg
Dry Mass 275.00 kg
Total Mass 297.00 kg
Length 0.20 m
Diameter 2.80 m
Span 9.00 m
Shape Box + pan
Manufacturer SPXS
Bus Type Starlink
Phase Status In Orbit
Owner/State SPXS/US

Large Constellations

Loading constellations...